Wind_Speed
11 10 11 11 9 9 8 6 7 10 10 11 11 10 12 12 10 11 12 8 9 12 10 7 10 12 10 12 15 13 8 8 13 15 15 15 16 18 19 19 19 18 18 19 20 19 18 18 18 18 18 16 13 13 15 18 19 20 20 21 20 17 14
12 12 13 13 13 12 8 6 9 12 11 11 11 11 11 12 9 12 14 9 8 12 11 7 10 13 12 14 15 11 11 15 17 17 16 16 17 20 21 21 21 21 21 21 21 20 19 18 17 16 15 14 12 12 15 16 17 18 19 19 19 17 16
13 14 13 14 17 16 12 12 13 12 10 10 11 11 12 13 11 12 14 12 12 15 14 11 13 15 15 17 17 16 18 20 20 20 20 19 18 20 22 23 24 24 24 24 24 22 20 19 18 16 15 13 12 12 13 15 16 17 17 18 19 19 17
13 15 14 14 17 17 15 15 15 15 13 11 12 13 14 14 13 13 14 14 15 15 13 13 14 15 17 19 21 21 21 23 23 23 23 22 21 20 22 25 26 27 27 27 27 25 22 20 18 17 16 15 14 13 14 15 15 15 16 17 19 20 19
13 14 13 13 15 16 16 15 15 17 16 14 14 15 16 16 15 15 15 16 18 14 11 12 14 15 17 18 21 23 24 25 25 26 26 25 24 23 23 26 28 29 29 28 28 26 23 21 20 19 18 17 16 14 14 15 15 14 14 16 17 18 19
14 13 11 12 14 15 17 17 17 17 17 17 16 14 16 16 15 16 16 18 21 17 12 13 15 16 18 20 22 24 26 27 28 28 28 28 28 27 26 27 29 30 31 29 28 26 24 22 21 20 19 19 18 16 15 15 16 16 15 15 15 15 16
12 12 12 14 15 16 18 19 19 18 18 19 17 16 18 17 17 18 18 19 23 21 15 14 16 19 21 22 24 25 27 29 30 30 30 30 30 30 29 29 30 32 32 30 28 26 24 23 22 22 21 20 20 19 17 16 16 17 17 16 16 15 14
12 13 14 15 15 16 17 18 19 19 19 20 20 21 22 20 21 22 19 21 25 22 18 17 19 21 23 25 26 27 28 31 32 32 32 33 32 32 31 31 31 33 33 31 29 27 25 24 23 23 22 22 22 21 19 18 16 17 18 18 18 18 17
13 14 15 15 15 15 15 16 17 18 21 22 22 25 25 24 26 26 23 26 28 24 22 22 23 24 25 27 28 29 31 32 34 34 34 34 34 33 33 32 33 34 33 31 30 28 26 25 24 24 24 24 24 23 21 19 18 17 18 19 20 21 20
14 13 13 13 14 15 16 18 18 19 21 21 22 24 25 26 29 28 26 29 30 27 27 28 29 29 29 30 32 32 33 34 35 36 36 36 36 35 35 35 35 35 34 32 32 30 28 26 25 25 25 25 26 26 25 24 21 20 19 19 20 22 22
18 17 16 16 17 19 20 21 22 23 24 23 23 24 25 27 28 27 27 30 30 29 29 30 31 32 33 33 34 34 34 35 36 37 37 37 37 37 37 37 38 38 37 36 35 33 30 29 27 27 26 27 28 28 29 29 27 24 22 21 21 22 22
21 21 22 22 22 22 24 24 25 27 28 28 27 27 28 29 30 30 31 32 32 31 31 31 32 33 33 34 34 34 35 36 37 37 38 38 38 38 38 38 39 39 39 39 38 37 34 32 30 29 29 30 30 30 30 30 30 27 25 24 24 23 23
23 23 23 24 24 25 26 27 28 29 30 30 30 30 30 31 31 33 33 33 33 33 33 33 33 33 33 34 35 35 36 37 38 38 38 38 39 39 39 39 39 39 39 39 40 39 38 36 34 32 31 32 32 32 31 31 30 29 27 26 25 25 24
24 23 23 24 25 26 27 28 28 29 29 30 30 31 31 31 32 34 35 35 35 35 35 34 34 35 35 36 36 37 37 38 38 39 38 38 38 39 39 39 39 39 39 39 40 39 38 38 38 35 34 33 33 33 32 32 31 30 29 28 27 27 27
24 23 22 22 23 24 25 26 26 26 27 28 29 30 30 30 32 33 34 35 35 35 35 35 35 35 36 36 37 37 37 37 37 38 38 38 38 39 39 39 39 40 40 40 40 39 37 37 39 39 37 36 35 35 34 33 32 31 31 30 28 28 29
24 24 21 20 22 23 24 24 22 22 24 26 27 27 27 27 29 30 31 33 33 33 34 33 33 33 34 35 35 36 36 37 37 37 38 39 40 40 39 40 40 41 42 42 41 39 36 35 38 40 39 38 37 37 36 35 34 32 31 30 29 29 29
24 24 21 21 23 23 23 22 20 21 24 24 25 26 25 26 26 28 30 32 32 31 31 32 32 32 32 33 34 34 35 35 36 37 39 40 41 41 41 41 41 40 40 39 40 39 36 34 36 39 40 39 38 38 38 37 36 34 33 32 31 30 30
25 25 22 23 25 25 24 22 22 24 25 25 27 27 27 28 28 29 32 33 33 32 33 34 34 33 33 35 35 35 34 34 35 37 38 40 40 41 41 41 39 38 37 36 36 35 33 33 36 37 37 37 37 38 39 39 38 37 35 34 32 32 32
27 26 24 26 28 27 26 26 27 28 29 29 30 30 30 31 30 32 33 34 34 33 34 34 34 33 33 33 34 35 34 34 35 36 37 39 39 39 39 39 38 38 37 34 33 32 32 34 37 37 36 35 35 38 40 41 40 38 37 36 35 34 33
28 28 28 29 30 30 29 29 30 31 31 31 31 30 30 30 30 31 32 32 32 32 32 32 32 31 31 31 32 32 33 34 35 36 37 38 38 38 39 39 40 40 39 37 36 35 36 38 38 38 37 36 36 38 41 42 42 42 40 39 38 36 34
27 29 30 30 30 30 30 30 30 31 30 30 30 28 27 27 28 30 31 32 32 31 31 31 30 30 31 32 32 31 32 34 35 36 38 39 40 41 41 42 42 42 42 41 40 40 40 41 41 40 40 40 40 42 43 43 44 45 45 44 41 39 37
24 26 28 28 28 29 28 27 27 29 29 29 30 28 25 25 27 29 31 32 32 31 30 31 31 31 32 32 30 29 32 34 34 36 37 38 40 42 42 43 43 43 43 42 42 42 42 42 43 43 43 44 44 45 45 45 46 47 48 47 45 44 42
22 23 24 26 27 26 25 25 26 27 27 28 29 29 26 25 27 29 30 30 31 31 31 32 32 33 33 33 33 33 36 38 38 38 39 39 40 41 41 42 43 42 43 43 43 44 44 43 44 45 46 47 47 47 47 48 49 49 48 47 45 44 44
22 22 23 25 26 26 26 27 27 26 27 28 28 28 27 26 27 29 29 29 30 31 32 33 34 34 35 36 38 39 40 40 41 41 41 41 42 42 42 43 43 42 42 42 43 43 44 44 45 46 47 48 49 49 49 50 51 50 49 48 46 45 45
22 22 23 26 27 26 27 27 27 27 28 28 27 26 27 27 28 29 30 31 32 34 34 35 36 36 37 38 39 40 40 40 41 42 43 43 43 43 43 43 43 42 42 42 42 42 42 42 43 44 46 47 48 49 49 50 51 51 51 51 50 48 47
21 21 22 25 26 26 26 27 28 29 28 26 25 26 28 30 32 33 34 35 36 36 36 36 36 37 37 38 38 39 39 39 40 40 41 41 42 42 42 42 42 42 41 41 41 41 42 42 42 43 44 45 46 48 48 50 50 51 51 52 51 50 49
21 22 23 25 26 26 27 28 28 28 27 27 29 31 33 35 36 36 36 36 36 37 37 37 37 37 37 37 37 37 37 37 37 37 37 38 38 39 40 41 41 42 42 41 41 42 42 43 43 43 44 45 46 47 48 49 50 50 51 52 51 50 49
23 24 24 26 27 28 29 29 29 29 30 32 33 34 35 36 36 36 37 37 37 37 37 37 37 37 36 36 35 35 35 35 35 36 36 37 38 39 39 41 41 42 42 42 42 42 43 43 43 43 44 44 44 45 47 48 50 50 51 52 52 51 50
24 25 26 27 28 30 30 31 31 32 33 33 34 35 35 36 36 37 37 38 38 38 37 37 37 36 36 35 34 34 34 35 36 37 37 38 39 40 41 42 42 43 43 43 43 42 42 43 43 44 44 45 44 44 44 46 48 49 49 51 52 53 51
25 27 28 29 30 31 31 32 32 33 34 34 35 35 36 36 37 37 38 39 39 38 38 37 37 36 35 35 34 35 35 36 37 38 38 39 40 41 42 42 43 43 42 42 41 41 40 40 41 42 42 42 42 42 42 43 44 46 47 48 51 52 52
27 29 30 30 31 32 32 33 33 33 33 34 34 35 36 37 37 38 39 39 39 38 37 37 36 36 35 36 36 36 37 37 37 38 39 39 40 40 41 41 41 41 41 40 39 39 38 39 39 40 39 39 39 38 38 39 40 42 44 45 47 50 52
30 31 32 31 32 33 34 33 33 32 33 33 34 35 35 36 37 38 38 37 37 37 37 36 36 36 36 36 37 36 36 37 37 38 39 39 39 39 39 39 39 39 39 39 39 39 39 39 39 39 39 39 38 38 38 38 38 39 40 41 43 46 49
33 34 33 32 33 36 36 34 33 33 33 33 34 34 35 35 36 36 36 35 35 35 35 36 36 36 36 36 36 36 36 37 37 38 38 38 38 37 37 37 38 39 39 39 39 39 39 39 38 38 37 37 38 38 39 39 39 39 38 39 40 43 46
35 36 35 33 33 36 37 35 33 33 33 33 33 34 34 34 34 34 33 33 33 34 35 35 35 35 36 36 36 36 36 37 37 38 37 35 35 35 35 36 36 37 37 36 36 36 36 36 36 35 34 35 36 37 38 38 39 39 38 37 38 39 42
36 36 36 34 33 34 35 35 33 32 33 33 33 33 33 33 33 32 32 33 33 34 34 34 35 35 36 36 36 36 36 37 37 36 35 33 32 33 33 33 33 33 33 33 33 33 34 34 34 33 33 33 34 35 36 37 37 37 36 36 36 36 38
35 35 34 34 33 32 33 33 33 32 32 32 31 32 32 32 31 31 32 32 33 34 34 34 35 36 36 36 36 36 36 36 36 34 33 32 31 31 31 31 31 31 33 33 34 34 34 34 34 33 33 33 33 34 35 35 35 35 35 35 34 34 35
34 34 33 32 31 32 32 33 32 32 31 30 30 30 30 30 30 31 31 32 33 34 34 34 35 35 35 35 35 35 35 35 34 32 31 30 30 30 30 31 32 33 35 36 36 35 35 34 34 33 32 32 33 34 34 34 34 34 34 34 34 33 33
Wind_Direction
242 240 246 253 254 256 270 292 282 268 272 281 276 271 270 264 264 275 278 280 292 291 277 243 247 258 257 260 266 271 284 332 344 343 347 350 349 347 344 342 342 341 338 332 326 325 331 337 341 344 347 347 343 333 331 334 337 341 344 342 341 340 329
244 240 243 247 246 250 262 264 263 272 284 285 271 262 270 274 269 273 280 280 275 277 275 261 264 268 263 260 267 287 324 341 342 337 337 339 340 342 342 338 338 340 342 340 331 324 326 333 337 338 343 345 340 332 328 329 332 335 338 339 338 336 330
246 246 246 247 246 245 246 251 261 273 282 282 270 258 259 267 268 270 280 284 271 266 276 292 302 307 309 304 306 321 330 331 331 329 329 329 331 337 339 337 335 334 335 338 337 328 321 325 330 331 330 330 330 329 324 324 327 330 332 335 337 337 333
254 255 252 248 249 246 245 252 261 263 261 262 266 265 259 260 267 269 273 279 273 269 279 292 300 307 309 308 311 315 318 321 323 323 324 324 325 330 334 335 334 333 330 333 337 333 321 316 321 324 323 320 320 322 320 320 325 328 331 334 337 338 335
258 260 257 253 256 256 254 255 259 262 263 262 266 272 267 260 263 270 273 275 273 273 281 285 289 295 296 297 301 305 310 314 317 319 320 321 321 324 328 329 329 329 328 328 332 333 322 311 310 313 315 316 317 319 321 322 325 329 332 334 336 338 336
257 262 266 264 265 266 263 263 265 268 270 270 272 277 273 265 263 267 272 274 274 276 279 277 281 285 286 289 295 300 305 309 313 316 317 318 318 319 322 324 324 324 324 324 327 329 322 310 304 304 306 311 314 318 323 327 328 330 330 329 329 331 332
263 266 268 270 271 270 269 268 269 270 269 269 269 269 271 276 276 272 272 273 273 276 275 272 274 279 282 286 290 295 300 305 310 312 314 314 315 315 317 319 319 318 318 319 322 323 319 308 300 298 300 305 311 317 324 329 330 329 327 324 320 318 321
252 253 254 257 261 264 268 270 270 270 269 269 269 268 270 275 275 275 276 273 273 276 278 276 275 276 280 284 287 291 296 301 306 308 310 310 310 311 312 313 313 313 313 315 317 318 316 309 301 298 300 304 309 316 324 330 330 326 323 320 316 314 312
251 252 253 254 256 259 264 268 270 270 270 270 270 269 270 269 270 273 275 272 272 276 281 284 283 282 284 285 287 290 293 297 301 303 304 305 305 306 306 307 308 307 307 310 312 313 312 309 305 302 303 306 309 313 318 323 325 321 317 315 313 312 312
268 266 269 273 275 275 274 274 274 273 272 273 271 271 272 271 271 275 275 274 277 281 283 286 287 287 287 286 287 290 292 294 297 298 299 300 301 302 303 304 304 304 305 307 308 309 308 306 303 302 301 302 304 306 308 312 315 314 312 310 308 309 311
274 275 279 282 283 284 285 284 282 280 277 277 275 275 274 274 277 281 278 277 281 285 285 286 286 286 286 285 286 287 289 290 292 293 294 295 297 299 300 302 302 304 306 307 307 305 303 301 300 298 297 297 299 300 302 305 309 310 308 305 303 304 308
269 273 277 278 278 279 279 280 280 280 280 281 279 277 275 277 281 282 280 281 284 286 287 287 285 284 283 282 283 284 285 286 287 289 290 292 293 295 297 299 300 302 305 306 307 305 301 299 298 297 297 297 297 299 300 302 304 305 305 303 300 301 304
268 268 271 272 273 273 272 272 273 274 276 279 279 277 276 278 278 278 280 283 285 285 286 285 284 283 282 282 282 282 282 283 284 284 285 286 288 290 293 295 297 299 300 301 303 304 301 298 296 296 296 296 297 297 298 299 300 301 301 300 298 298 299
273 269 269 271 270 269 269 269 269 270 272 273 274 274 275 275 275 277 280 281 282 283 283 282 282 281 281 281 281 281 281 281 280 281 281 281 283 285 287 289 291 293 295 296 297 299 299 297 295 294 294 294 294 295 294 294 295 297 297 296 295 295 295
279 273 270 272 272 270 269 268 268 269 269 269 270 271 273 273 274 275 277 277 278 279 279 279 278 278 278 278 278 278 278 275 274 275 277 278 279 280 281 283 285 287 288 289 289 291 292 292 292 291 290 290 291 291 291 291 291 292 293 292 291 292 293
282 278 273 274 275 272 271 270 269 269 267 267 269 271 271 272 274 275 276 275 275 275 276 276 275 275 275 274 273 272 272 271 270 271 273 274 276 276 277 278 280 281 283 283 282 281 282 285 288 288 287 287 288 289 289 289 288 288 288 289 288 288 289
282 279 277 280 279 277 276 275 273 271 270 270 272 273 273 273 274 275 275 275 276 276 276 275 274 274 274 273 273 272 271 272 272 273 273 274 274 275 275 278 279 281 283 284 281 277 274 277 284 286 285 284 286 288 289 288 287 286 284 284 285 285 286
282 281 283 285 283 282 283 283 281 278 276 277 277 277 278 278 277 276 276 277 279 279 277 276 276 275 274 274 275 274 273 272 271 272 273 274 274 274 275 278 280 281 283 283 281 276 271 273 280 282 280 280 283 285 287 287 286 284 283 281 281 282 283
281 283 287 286 284 284 286 286 285 283 282 283 282 282 283 282 280 278 278 278 279 279 279 279 279 278 277 275 274 274 274 273 271 271 271 271 272 272 274 275 276 277 279 280 278 275 272 275 278 276 274 276 280 282 284 285 284 282 281 281 280 279 279
282 285 286 285 285 286 287 286 285 284 285 285 285 285 285 284 283 281 281 281 280 280 280 280 280 280 279 277 275 275 274 274 273 272 271 271 272 271 272 273 272 273 276 277 275 273 273 276 276 272 270 272 277 280 281 282 282 281 281 280 279 278 277
281 283 283 284 285 286 285 285 284 285 285 285 284 284 284 284 283 283 283 283 283 283 282 282 282 281 280 279 278 277 275 273 272 272 272 273 273 273 272 271 271 272 273 274 273 271 272 273 273 271 269 270 275 278 278 278 278 279 280 280 279 277 276
278 278 279 281 283 282 283 283 283 283 284 284 284 284 283 283 283 282 283 284 285 285 285 285 285 284 284 284 282 279 277 276 274 273 272 272 272 272 272 271 271 271 271 270 270 269 269 269 270 269 269 270 273 274 274 274 275 276 277 278 278 277 276
277 277 277 278 279 280 281 281 280 281 281 282 283 284 283 281 279 279 280 282 283 284 286 287 286 286 285 284 282 281 280 280 280 279 277 276 274 274 273 273 272 272 271 270 269 269 268 268 268 268 268 269 269 269 269 271 272 272 273 274 276 277 276
279 279 278 277 278 280 280 279 280 280 281 281 283 283 282 279 275 276 278 279 280 282 285 285 285 284 283 282 282 283 283 283 283 282 281 280 279 278 277 277 276 275 274 272 271 270 269 268 268 267 268 268 268 268 267 267 268 268 269 270 272 274 275
281 281 280 279 280 281 281 281 282 283 284 285 284 282 280 278 276 276 278 279 280 282 284 284 283 283 283 282 283 283 283 283 282 282 282 282 281 281 280 280 280 279 279 277 276 275 273 272 270 269 268 267 267 266 266 265 265 265 266 267 269 272 273
283 282 281 280 282 284 285 286 288 289 288 286 283 280 279 280 281 282 283 284 284 285 285 284 284 283 283 282 282 282 281 280 280 279 280 281 281 282 283 283 282 282 281 281 280 279 278 277 275 273 272 270 269 268 266 265 264 264 264 265 267 269 271
285 285 283 282 284 287 289 290 290 290 288 286 284 284 284 284 286 286 287 287 287 287 286 285 284 284 284 283 283 282 282 282 281 281 281 282 282 283 284 284 284 284 283 283 282 281 281 279 278 276 275 273 272 270 269 267 265 264 264 264 265 267 268
288 287 286 286 289 292 293 292 291 290 290 289 288 288 288 289 289 289 289 288 287 287 286 286 286 286 286 286 285 286 286 286 286 286 286 286 286 286 286 286 285 285 285 285 284 284 283 283 281 279 277 274 272 270 269 268 267 265 263 263 264 264 265
290 289 289 290 292 293 294 293 293 292 292 292 291 290 290 290 290 290 289 289 288 288 288 289 289 289 289 289 289 289 289 289 289 289 290 290 290 290 289 288 288 287 287 287 287 287 286 285 284 282 280 278 275 271 269 267 267 265 263 261 261 262 262
291 291 292 293 293 294 294 294 294 294 293 292 291 291 291 291 290 289 289 289 289 290 290 290 290 290 290 290 290 290 291 291 291 291 291 291 290 290 289 289 288 288 288 288 287 287 286 285 284 283 282 281 278 275 271 268 266 265 263 261 260 259 259
291 291 292 293 293 294 294 294 293 293 292 292 291 290 290 289 289 288 288 289 290 291 291 291 291 291 291 291 291 291 291 291 291 290 290 290 289 289 288 288 288 288 288 288 287 287 286 285 284 284 284 283 281 278 275 272 268 266 264 262 260 258 258
291 290 291 292 292 292 292 292 292 291 291 291 291 290 289 288 288 288 289 289 290 291 291 291 291 291 291 291 290 290 290 290 290 290 290 290 289 289 289 289 289 289 289 289 289 288 287 287 286 285 284 283 281 280 278 275 273 270 267 265 261 259 258
290 290 292 292 291 290 291 291 291 291 291 291 290 289 289 288 288 288 289 289 289 289 289 289 290 290 290 290 290 290 291 291 291 291 291 290 290 289 289 290 290 290 290 290 290 289 288 287 286 286 285 284 282 280 278 276 275 274 272 269 266 262 259
291 292 292 292 290 290 292 293 293 292 292 292 290 290 290 289 289 290 290 289 288 288 289 289 290 290 289 289 290 291 292 292 292 292 292 291 290 290 290 291 291 292 292 292 291 290 289 288 287 287 286 286 284 282 280 278 276 275 274 273 271 267 262
292 292 293 292 291 292 293 295 294 293 293 292 292 292 291 291 291 291 291 290 289 289 289 290 289 288 288 290 292 293 293 293 293 292 291 290 290 291 292 293 294 294 294 294 293 292 291 290 289 288 288 287 286 284 282 280 278 276 275 274 273 271 266
292 292 293 293 294 293 293 293 293 293 293 294 294 293 292 292 291 290 290 289 288 288 288 288 288 288 290 292 293 294 293 293 293 292 291 291 292 293 293 294 295 295 295 295 294 294 292 291 290 289 288 287 286 284 283 282 280 278 276 274 273 273 270
293 293 294 294 294 293 292 293 294 294 294 294 292 290 290 289 289 288 287 287 287 287 288 288 289 290 292 293 293 293 293 292 291 290 291 292 293 293 293 294 295 296 296 296 295 294 293 291 290 289 288 287 285 283 283 283 282 280 277 275 274 273 271
Height
5930 5931 5932 5932 5933 5933 5933 5934 5934 5934 5934 5933 5934 5934 5933 5933 5934 5934 5933 5933 5934 5931 5929 5929 5928 5926 5925 5925 5922 5919 5920 5923 5924 5923 5923 5922 5921 5920 5918 5917 5916 5915 5914 5912 5911 5910 5909 5908 5906 5905 5903 5902 5901 5901 5900 5898 5895 5894 5892 5889 5887 5885 5884
5929 5930 5930 5931 5931 5932 5932 5933 5933 5932 5932 5932 5932 5933 5933 5932 5934 5934 5932 5932 5933 5930 5927 5927 5926 5924 5923 5921 5919 5918 5919 5921 5922 5922 5921 5921 5920 5919 5918 5916 5915 5914 5913 5911 5910 5908 5908 5907 5905 5903 5902 5901 5901 5900 5898 5896 5894 5892 5890 5888 5886 5885 5883
5928 5928 5929 5930 5929 5930 5931 5931 5930 5930 5931 5931 5931 5931 5932 5932 5933 5933 5931 5931 5930 5927 5925 5926 5925 5924 5922 5920 5918 5918 5919 5920 5920 5920 5920 5920 5919 5918 5917 5915 5914 5912 5911 5910 5909 5907 5906 5905 5904 5902 5900 5899 5899 5898 5896 5894 5893 5891 5889 5887 5885 5884 5883
5926 5927 5928 5928 5927 5928 5929 5929 5929 5929 5929 5930 5930 5930 5930 5930 5931 5931 5930 5929 5926 5925 5925 5925 5924 5922 5921 5919 5917 5917 5918 5919 5919 5919 5918 5918 5917 5917 5916 5914 5913 5911 5910 5908 5908 5906 5905 5903 5902 5901 5899 5898 5897 5896 5895 5893 5892 5891 5889 5887 5885 5883 5882
5925 5925 5925 5926 5926 5926 5927 5927 5927 5927 5927 5927 5928 5928 5927 5927 5928 5928 5928 5927 5924 5923 5924 5924 5923 5922 5921 5920 5919 5918 5918 5918 5918 5917 5916 5916 5915 5915 5915 5913 5911 5909 5908 5907 5906 5905 5903 5901 5900 5899 5897 5896 5896 5895 5894 5892 5891 5890 5889 5887 5885 5883 5881
5923 5923 5923 5924 5924 5925 5925 5925 5925 5925 5926 5926 5926 5926 5925 5924 5925 5925 5925 5924 5921 5921 5923 5922 5921 5921 5920 5919 5918 5918 5917 5916 5916 5915 5915 5914 5913 5913 5912 5912 5910 5907 5906 5905 5904 5903 5901 5899 5898 5897 5896 5895 5895 5895 5894 5892 5890 5889 5888 5886 5884 5882 5880
5921 5922 5922 5922 5923 5923 5922 5922 5922 5923 5923 5923 5924 5924 5922 5922 5923 5922 5922 5921 5918 5918 5920 5920 5920 5919 5918 5918 5917 5916 5915 5914 5914 5913 5912 5911 5910 5910 5910 5909 5908 5905 5903 5902 5902 5901 5899 5897 5895 5894 5894 5893 5893 5894 5894 5893 5890 5888 5887 5886 5884 5882 5880
5919 5920 5920 5920 5920 5920 5920 5920 5920 5920 5920 5920 5921 5921 5920 5921 5920 5918 5918 5917 5915 5916 5917 5917 5917 5917 5916 5916 5915 5914 5913 5912 5911 5910 5910 5909 5908 5907 5906 5906 5905 5903 5901 5900 5900 5899 5897 5895 5894 5893 5892 5891 5891 5892 5893 5893 5891 5889 5887 5885 5883 5881 5879
5918 5918 5918 5918 5918 5918 5918 5918 5918 5918 5918 5918 5919 5918 5918 5918 5916 5915 5916 5913 5911 5913 5915 5915 5915 5914 5914 5913 5912 5912 5911 5910 5909 5908 5907 5906 5905 5904 5903 5902 5902 5900 5899 5898 5897 5897 5895 5893 5892 5892 5891 5890 5889 5890 5890 5891 5890 5888 5886 5884 5882 5881 5879
5916 5916 5917 5917 5917 5916 5916 5915 5915 5915 5915 5915 5916 5915 5915 5914 5911 5912 5912 5909 5908 5910 5911 5911 5911 5910 5910 5910 5909 5908 5908 5907 5906 5905 5904 5903 5902 5901 5900 5899 5898 5897 5897 5896 5895 5894 5893 5891 5890 5890 5889 5888 5887 5887 5887 5887 5887 5887 5885 5883 5881 5879 5878
5914 5914 5914 5915 5915 5914 5913 5912 5912 5912 5912 5912 5912 5912 5911 5910 5908 5908 5908 5905 5905 5906 5907 5907 5907 5907 5907 5907 5906 5905 5905 5904 5903 5902 5901 5900 5899 5898 5898 5896 5895 5894 5893 5893 5892 5892 5890 5889 5888 5887 5887 5886 5885 5884 5884 5883 5884 5884 5883 5881 5879 5878 5876
5913 5912 5912 5912 5912 5912 5911 5910 5909 5908 5908 5908 5908 5908 5907 5906 5905 5905 5904 5902 5902 5902 5903 5903 5903 5903 5903 5903 5902 5902 5901 5900 5899 5899 5898 5897 5896 5895 5895 5894 5892 5891 5890 5889 5889 5889 5888 5886 5885 5884 5884 5883 5883 5882 5881 5880 5880 5880 5880 5879 5877 5875 5874
5910 5910 5910 5909 5909 5909 5908 5907 5907 5906 5905 5904 5904 5904 5903 5903 5902 5901 5900 5900 5899 5899 5899 5900 5899 5899 5899 5898 5898 5897 5897 5896 5896 5895 5895 5894 5893 5892 5891 5890 5889 5888 5887 5886 5885 5884 5884 5883 5882 5881 5881 5880 5880 5879 5879 5878 5877 5876 5876 5876 5874 5872 5871
5906 5906 5907 5906 5905 5905 5904 5904 5903 5903 5902 5901 5900 5900 5899 5899 5898 5897 5897 5896 5896 5895 5895 5895 5895 5895 5894 5893 5893 5893 5893 5892 5892 5891 5891 5890 5890 5889 5888 5887 5886 5885 5884 5882 5881 5880 5880 5880 5879 5878 5877 5876 5876 5876 5875 5875 5874 5874 5873 5872 5871 5870 5868
5902 5902 5902 5902 5902 5901 5900 5900 5900 5900 5899 5898 5897 5896 5896 5896 5895 5894 5893 5892 5892 5891 5891 5890 5890 5890 5889 5889 5889 5889 5889 5888 5888 5887 5887 5886 5886 5885 5884 5883 5882 5881 5880 5879 5878 5876 5875 5875 5875 5874 5873 5872 5872 5872 5872 5872 5872 5871 5870 5870 5869 5868 5866
5899 5898 5898 5898 5898 5897 5897 5897 5897 5896 5895 5894 5893 5893 5893 5893 5891 5890 5889 5888 5887 5887 5886 5886 5886 5886 5885 5885 5884 5884 5883 5883 5883 5882 5882 5881 5881 5880 5879 5879 5878 5877 5875 5874 5874 5873 5871 5871 5871 5870 5869 5868 5868 5868 5868 5868 5868 5868 5867 5867 5866 5865 5864
5896 5895 5895 5895 5894 5893 5893 5893 5893 5892 5891 5891 5890 5890 5890 5889 5888 5887 5885 5883 5883 5883 5883 5882 5881 5881 5881 5880 5879 5879 5879 5878 5878 5878 5877 5877 5876 5875 5875 5874 5873 5872 5871 5870 5869 5868 5868 5867 5867 5866 5865 5863 5863 5862 5863 5863 5864 5864 5864 5863 5863 5862 5861
5892 5891 5892 5892 5890 5890 5890 5890 5890 5888 5888 5887 5886 5886 5886 5886 5885 5883 5881 5879 5879 5879 5879 5877 5877 5877 5877 5876 5875 5874 5874 5874 5873 5873 5872 5871 5871 5870 5870 5869 5868 5868 5867 5866 5864 5863 5863 5863 5863 5862 5861 5860 5858 5857 5857 5858 5858 5859 5859 5859 5859 5859 5858
5889 5888 5889 5888 5887 5886 5886 5886 5885 5884 5883 5883 5882 5882 5882 5881 5880 5879 5877 5876 5875 5874 5874 5873 5872 5872 5872 5871 5871 5870 5869 5869 5869 5868 5867 5866 5866 5865 5864 5864 5863 5863 5862 5861 5860 5859 5859 5859 5859 5858 5857 5856 5854 5853 5853 5853 5853 5853 5853 5854 5854 5854 5854
5885 5885 5885 5884 5883 5882 5882 5882 5881 5880 5879 5879 5878 5878 5877 5876 5875 5873 5872 5871 5870 5870 5869 5869 5868 5867 5867 5866 5866 5865 5865 5864 5864 5863 5862 5861 5860 5860 5859 5859 5858 5858 5857 5857 5856 5856 5855 5855 5854 5854 5853 5852 5851 5850 5849 5848 5848 5847 5848 5848 5849 5849 5850
5883 5882 5881 5880 5879 5878 5878 5877 5876 5875 5875 5874 5874 5873 5873 5872 5870 5868 5867 5866 5866 5865 5865 5864 5864 5863 5862 5861 5861 5861 5860 5859 5859 5858 5856 5855 5854 5854 5853 5853 5852 5852 5852 5851 5851 5851 5851 5850 5849 5849 5848 5847 5846 5845 5844 5844 5843 5842 5842 5842 5842 5843 5844
5879 5879 5878 5876 5876 5875 5874 5873 5873 5872 5871 5870 5869 5869 5869 5868 5866 5864 5862 5861 5861 5860 5860 5859 5859 5858 5857 5856 5855 5855 5854 5853 5853 5852 5851 5851 5849 5848 5847 5847 5846 5846 5846 5846 5846 5845 5845 5845 5844 5843 5842 5841 5841 5840 5839 5839 5839 5838 5837 5836 5836 5837 5837
5876 5876 5875 5873 5872 5871 5870 5870 5869 5868 5867 5867 5866 5865 5865 5864 5862 5860 5859 5858 5857 5856 5855 5855 5854 5853 5853 5851 5849 5849 5848 5847 5846 5846 5845 5844 5844 5842 5841 5840 5839 5839 5839 5839 5839 5839 5839 5839 5838 5837 5836 5835 5835 5834 5834 5833 5833 5832 5832 5831 5830 5831 5831
5872 5872 5872 5870 5868 5867 5867 5866 5865 5865 5864 5863 5862 5861 5861 5860 5858 5857 5856 5855 5854 5853 5852 5851 5849 5848 5848 5846 5844 5843 5842 5841 5839 5838 5838 5837 5836 5835 5834 5833 5832 5832 5832 5832 5832 5831 5831 5831 5831 5830 5829 5828 5828 5828 5827 5827 5827 5826 5826 5825 5825 5825 5825
5869 5869 5868 5866 5864 5863 5863 5862 5861 5861 5860 5859 5859 5857 5856 5855 5854 5853 5852 5851 5850 5849 5848 5846 5845 5843 5842 5840 5839 5837 5836 5835 5833 5831 5830 5829 5828 5827 5827 5826 5825 5825 5825 5825 5825 5824 5824 5824 5824 5823 5822 5821 5821 5820 5820 5820 5820 5820 5819 5819 5818 5819 5819
5866 5865 5864 5862 5860 5860 5859 5858 5857 5856 5856 5855 5854 5853 5851 5850 5849 5848 5847 5846 5845 5844 5842 5841 5840 5838 5837 5835 5834 5832 5830 5829 5828 5826 5825 5823 5822 5821 5820 5818 5818 5817 5817 5817 5817 5817 5816 5816 5816 5815 5815 5814 5813 5813 5812 5812 5812 5812 5812 5812 5812 5812 5812
5862 5861 5860 5858 5856 5855 5855 5854 5853 5852 5851 5850 5849 5847 5846 5845 5844 5842 5841 5840 5839 5837 5836 5835 5833 5832 5831 5830 5828 5827 5825 5824 5822 5821 5820 5818 5817 5816 5814 5812 5811 5810 5810 5810 5809 5809 5808 5808 5808 5807 5807 5806 5806 5805 5804 5804 5804 5804 5804 5804 5804 5804 5805
5859 5857 5856 5854 5852 5851 5850 5850 5848 5847 5846 5845 5843 5842 5841 5839 5838 5836 5835 5834 5833 5831 5830 5828 5827 5826 5825 5824 5822 5821 5820 5818 5816 5815 5814 5812 5811 5810 5808 5807 5805 5804 5803 5803 5802 5802 5801 5800 5799 5799 5798 5798 5798 5797 5796 5795 5795 5795 5796 5796 5796 5797 5797
5855 5853 5852 5850 5849 5847 5846 5845 5843 5842 5841 5839 5838 5836 5835 5833 5832 5831 5829 5827 5826 5825 5824 5823 5821 5820 5819 5818 5817 5816 5814 5813 5811 5810 5808 5806 5805 5803 5802 5800 5799 5798 5797 5796 5795 5795 5794 5793 5792 5791 5790 5789 5789 5789 5789 5788 5787 5787 5787 5788 5788 5789 5790
5850 5849 5847 5846 5845 5843 5841 5840 5839 5837 5836 5834 5833 5831 5829 5828 5826 5825 5823 5821 5820 5819 5818 5817 5816 5815 5813 5812 5811 5810 5809 5807 5806 5804 5803 5801 5799 5797 5795 5794 5792 5791 5790 5790 5789 5789 5788 5786 5785 5784 5783 5781 5781 5781 5781 5780 5780 5779 5779 5780 5781 5781 5782
5847 5845 5843 5842 5840 5839 5837 5836 5834 5833 5831 5829 5828 5826 5824 5823 5821 5819 5818 5816 5815 5814 5813 5812 5810 5809 5808 5807 5806 5805 5803 5802 5801 5799 5798 5796 5794 5792 5790 5788 5787 5785 5784 5784 5783 5782 5781 5780 5779 5777 5776 5775 5774 5774 5773 5773 5773 5772 5772 5773 5773 5774 5774
5842 5840 5839 5838 5836 5834 5833 5831 5830 5829 5827 5825 5823 5821 5820 5818 5816 5814 5813 5812 5810 5809 5807 5806 5805 5804 5803 5801 5800 5799 5798 5797 5795 5794 5792 5790 5789 5787 5785 5783 5781 5780 5778 5777 5776 5775 5775 5774 5772 5771 5770 5768 5767 5767 5766 5766 5766 5765 5765 5765 5766 5766 5766
5837 5835 5835 5834 5831 5828 5827 5827 5826 5824 5822 5821 5819 5817 5815 5813 5811 5810 5809 5807 5806 5805 5803 5802 5800 5799 5797 5796 5795 5794 5792 5791 5789 5788 5786 5785 5783 5781 5780 5778 5776 5774 5773 5772 5770 5769 5768 5768 5767 5766 5764 5763 5761 5760 5760 5759 5759 5759 5759 5759 5759 5759 5759
5831 5830 5830 5829 5826 5823 5822 5821 5821 5819 5817 5816 5814 5812 5810 5808 5807 5806 5804 5803 5802 5800 5799 5797 5796 5794 5792 5791 5789 5788 5787 5785 5783 5782 5781 5779 5778 5776 5775 5773 5771 5770 5768 5767 5765 5764 5763 5762 5761 5760 5759 5757 5756 5755 5754 5753 5752 5752 5752 5752 5752 5752 5752
5826 5825 5824 5823 5822 5819 5817 5816 5815 5814 5812 5810 5808 5807 5805 5803 5802 5801 5800 5798 5796 5795 5793 5792 5790 5788 5787 5786 5785 5783 5782 5780 5778 5777 5775 5774 5773 5771 5770 5768 5767 5765 5763 5762 5761 5760 5758 5757 5756 5755 5753 5752 5750 5749 5747 5746 5745 5745 5745 5745 5745 5745 5745
5822 5820 5819 5818 5817 5815 5813 5811 5810 5808 5807 5805 5804 5802 5800 5799 5797 5796 5795 5793 5791 5789 5788 5786 5785 5783 5782 5781 5780 5778 5777 5775 5773 5771 5770 5769 5768 5767 5765 5764 5762 5761 5759 5757 5756 5754 5753 5751 5750 5749 5748 5746 5744 5743 5741 5740 5739 5739 5739 5738 5739 5738 5738
5817 5816 5815 5813 5812 5810 5808 5806 5805 5803 5802 5801 5799 5797 5795 5794 5792 5791 5789 5788 5786 5784 5783 5782 5780 5779 5778 5776 5775 5773 5771 5770 5768 5767 5765 5764 5763 5762 5760 5759 5758 5756 5754 5752 5750 5749 5747 5746 5745 5743 5742 5741 5739 5737 5736 5735 5734 5733 5733 5732 5732 5732 5732